• In Moldova, Republic
  • List of Countries
  • For 7 days
  • Water Temperature
  • Satellite Maps
  • Weather Map
  • Weather Widgets
  • user-avatar
    Login

    Hourly Weather Mayrhofen

    Today, 28 April, Friday

    Time Temperature Precipitation Wind Pressure Humidity
    00:00 -3°C° 1.1 mm 1 mps 608 mmHg 98%
    01:00 -5°C° 0 mm 0 mps 607 mmHg 98%
    02:00 -4°C° 0.7 mm 1 mps 607 mmHg 98%
    03:00 -4°C° 0.7 mm 1 mps 607 mmHg 98%
    04:00 -4°C° 0.7 mm 1 mps 607 mmHg 98%
    05:00 -3°C° 1.1 mm 1 mps 607 mmHg 98%
    06:00 -3°C° 1.1 mm 1 mps 607 mmHg 98%
    07:00 -3°C° 0 mm 1 mps 607 mmHg 97%
    08:00 -3°C° 1.7 mm 1 mps 607 mmHg 97%
    09:00 -5°C° 1.7 mm 2 mps 607 mmHg 97%
    10:00 -5°C° 1.7 mm 2 mps 608 mmHg 96%
    11:00 -4°C° 1.1 mm 2 mps 608 mmHg 96%
    12:00 -4°C° 1.1 mm 2 mps 609 mmHg 95%
    13:00 -3°C° 1.1 mm 2 mps 609 mmHg 95%
    14:00 -3°C° 0.8 mm 2 mps 610 mmHg 95%
    15:00 -3°C° 0.8 mm 2 mps 610 mmHg 95%
    16:00 -3°C° 0.8 mm 2 mps 610 mmHg 94%
    17:00 -4°C° 0.4 mm 2 mps 610 mmHg 95%
    18:00 -4°C° 0.4 mm 2 mps 611 mmHg 95%
    19:00 -5°C° 0.4 mm 2 mps 611 mmHg 96%
    20:00 -6°C° 0.2 mm 2 mps 611 mmHg 96%
    21:00 -6°C° 0.2 mm 2 mps 612 mmHg 96%
    22:00 -7°C° 0.2 mm 2 mps 612 mmHg 96%
    23:00 -8°C° 0.1 mm 2 mps 612 mmHg 96%

    Tomorrow, 29 April, Saturday

    Time Temperature Precipitation Wind Pressure Humidity
    00:00 -9°C° 0.1 mm 2 mps 612 mmHg 96%
    01:00 -9°C° 0.1 mm 2 mps 612 mmHg 96%
    02:00 -9°C° 0 mm 1 mps 612 mmHg 96%
    03:00 -10°C° 0 mm 1 mps 611 mmHg 96%
    04:00 -11°C° 0 mm 1 mps 611 mmHg 95%
    05:00 -9°C° 0 mm 1 mps 612 mmHg 95%
    06:00 -7°C° 0 mm 1 mps 613 mmHg 94%
    07:00 -4°C° 0 mm 1 mps 614 mmHg 93%
    08:00 -2°C° 0 mm 1 mps 615 mmHg 93%
    09:00 -1°C° 0 mm 0 mps 615 mmHg 93%
    10:00 0°C° 0 mm 0 mps 616 mmHg 93%
    11:00 +1°C° 0 mm 0 mps 616 mmHg 93%
    12:00 +1°C° 0 mm 0 mps 616 mmHg 93%
    13:00 +2°C° 0 mm 1 mps 616 mmHg 93%
    14:00 +3°C° 0 mm 1 mps 615 mmHg 93%
    15:00 +2°C° 0 mm 0 mps 615 mmHg 93%
    16:00 +2°C° 0 mm 0 mps 615 mmHg 93%
    17:00 +1°C° 0 mm 0 mps 615 mmHg 94%
    18:00 -1°C° 0 mm 0 mps 614 mmHg 96%
    19:00 -2°C° 0 mm 0 mps 614 mmHg 97%
    20:00 -2°C° 0 mm 1 mps 614 mmHg 97%
    21:00 -3°C° 0 mm 1 mps 614 mmHg 97%
    22:00 -4°C° 0 mm 1 mps 614 mmHg 97%
    23:00 -4°C° 0 mm 1 mps 613 mmHg 97%

    Day after tomorrow, 30 April, Sunday

    Time Temperature Precipitation Wind Pressure Humidity
    00:00 -4°C° 0 mm 1 mps 613 mmHg 97%
    01:00 -6°C° 0 mm 2 mps 613 mmHg 96%
    02:00 -6°C° 0 mm 2 mps 613 mmHg 96%
    03:00 -6°C° 0 mm 2 mps 613 mmHg 96%
    04:00 -6°C° 0 mm 2 mps 613 mmHg 96%
    05:00 -5°C° 0 mm 2 mps 613 mmHg 95%
    06:00 -3°C° 0 mm 2 mps 614 mmHg 94%
    07:00 -2°C° 0 mm 2 mps 614 mmHg 93%
    08:00 -1°C° 0 mm 2 mps 614 mmHg 93%
    09:00 +2°C° 0 mm 2 mps 615 mmHg 92%
    10:00 +3°C° 0 mm 2 mps 615 mmHg 92%
    11:00 +3°C° 0 mm 2 mps 614 mmHg 91%
    12:00 +4°C° 0 mm 2 mps 614 mmHg 90%
    13:00 +5°C° 0 mm 2 mps 614 mmHg 89%
    14:00 +5°C° 0 mm 2 mps 614 mmHg 89%
    15:00 +5°C° 0 mm 2 mps 614 mmHg 89%
    16:00 +5°C° 0 mm 2 mps 613 mmHg 89%
    17:00 +3°C° 0 mm 2 mps 613 mmHg 91%
    18:00 +2°C° 0 mm 2 mps 612 mmHg 94%
    19:00 +1°C° 0 mm 2 mps 612 mmHg 96%
    20:00 -1°C° 0 mm 2 mps 612 mmHg 96%
    21:00 -1°C° 0 mm 2 mps 612 mmHg 96%
    22:00 -2°C° 0 mm 2 mps 612 mmHg 97%
    23:00 -2°C° 0 mm 2 mps 612 mmHg 96%

    1 May, Monday

    Time Temperature Precipitation Wind Pressure Humidity
    00:00 -2°C° 0 mm 2 mps 611 mmHg 96%
    01:00 -2°C° 0 mm 2 mps 611 mmHg 96%
    02:00 -2°C° 0 mm 2 mps 611 mmHg 96%
    03:00 -3°C° 0 mm 2 mps 611 mmHg 96%
    04:00 -3°C° 0 mm 2 mps 611 mmHg 96%
    05:00 -2°C° 0 mm 2 mps 611 mmHg 94%
    06:00 -1°C° 0 mm 2 mps 611 mmHg 93%
    07:00 +2°C° 0 mm 1 mps 612 mmHg 91%
    08:00 +2°C° 0.3 mm 1 mps 612 mmHg 91%
    09:00 +3°C° 0.3 mm 1 mps 613 mmHg 90%
    10:00 +3°C° 0.3 mm 2 mps 613 mmHg 89%
    11:00 +3°C° 1.5 mm 2 mps 613 mmHg 90%
    12:00 +2°C° 1.5 mm 2 mps 613 mmHg 92%
    13:00 +2°C° 1.5 mm 2 mps 613 mmHg 93%
    14:00 +1°C° 1.4 mm 2 mps 613 mmHg 94%
    15:00 -1°C° 1.4 mm 2 mps 614 mmHg 94%
    16:00 -2°C° 1.4 mm 2 mps 614 mmHg 95%
    17:00 -2°C° 0.8 mm 2 mps 614 mmHg 95%
    18:00 -3°C° 0.8 mm 2 mps 613 mmHg 96%
    19:00 -4°C° 0.8 mm 2 mps 613 mmHg 96%
    20:00 -5°C° 0.2 mm 2 mps 614 mmHg 96%
    21:00 -5°C° 0.2 mm 2 mps 614 mmHg 95%
    22:00 -4°C° 0.2 mm 1 mps 614 mmHg 95%
    23:00 -7°C° 0 mm 1 mps 613 mmHg 95%

    2 May, Tuesday

    Time Temperature Precipitation Wind Pressure Humidity
    00:00 -9°C° 0 mm 1 mps 612 mmHg 95%
    01:00 -10°C° 0 mm 1 mps 611 mmHg 95%
    02:00 -10°C° 0 mm 1 mps 611 mmHg 94%
    03:00 -10°C° 0 mm 1 mps 611 mmHg 93%
    04:00 -10°C° 0 mm 1 mps 611 mmHg 93%
    05:00 -7°C° 0 mm 1 mps 612 mmHg 91%
    06:00 -3°C° 0 mm 1 mps 613 mmHg 90%
    07:00 -1°C° 0 mm 1 mps 614 mmHg 88%
    08:00 +1°C° 0 mm 1 mps 615 mmHg 89%
    09:00 +2°C° 0 mm 1 mps 615 mmHg 89%
    10:00 +3°C° 0 mm 2 mps 615 mmHg 90%
    11:00 +3°C° 0 mm 2 mps 615 mmHg 89%
    12:00 +4°C° 0 mm 2 mps 614 mmHg 89%
    13:00 +4°C° 0 mm 2 mps 614 mmHg 88%
    14:00 +4°C° 0.1 mm 2 mps 614 mmHg 89%
    15:00 +4°C° 0.1 mm 2 mps 614 mmHg 90%
    16:00 +4°C° 0.1 mm 2 mps 613 mmHg 90%
    17:00 +3°C° 0.3 mm 2 mps 613 mmHg 92%
    18:00 +4°C° 0.3 mm 1 mps 612 mmHg 94%
    19:00 +3°C° 0.3 mm 1 mps 612 mmHg 96%
    20:00 +2°C° 0.3 mm 1 mps 612 mmHg 97%
    21:00 +2°C° 0.3 mm 1 mps 611 mmHg 97%
    22:00 +1°C° 0.3 mm 1 mps 611 mmHg 97%
    23:00 +1°C° 1.2 mm 1 mps 611 mmHg 97%

    3 May, Wednesday

    Time Temperature Precipitation Wind Pressure Humidity
    00:00 +1°C° 1.2 mm 1 mps 611 mmHg 97%
    01:00 +1°C° 1.2 mm 1 mps 611 mmHg 97%
    02:00 +1°C° 2 mm 1 mps 611 mmHg 97%
    03:00 0°C° 2 mm 1 mps 611 mmHg 98%
    04:00 -2°C° 2 mm 2 mps 612 mmHg 98%
    05:00 -2°C° 1.2 mm 2 mps 612 mmHg 97%
    06:00 -2°C° 1.2 mm 2 mps 612 mmHg 97%
    07:00 0°C° 1.2 mm 1 mps 612 mmHg 97%
    08:00 -2°C° 0.7 mm 2 mps 612 mmHg 96%
    09:00 -1°C° 0.7 mm 2 mps 612 mmHg 96%
    10:00 +1°C° 0.7 mm 2 mps 613 mmHg 95%
    11:00 +1°C° 0.8 mm 2 mps 613 mmHg 95%
    12:00 +1°C° 0.8 mm 2 mps 613 mmHg 95%
    13:00 +1°C° 0.8 mm 2 mps 613 mmHg 95%
    14:00 +1°C° 0.9 mm 2 mps 613 mmHg 95%
    15:00 +1°C° 0.9 mm 2 mps 613 mmHg 95%
    16:00 +1°C° 0.9 mm 2 mps 613 mmHg 95%
    17:00 +1°C° 0.4 mm 2 mps 613 mmHg 95%
    18:00 -1°C° 0.4 mm 2 mps 613 mmHg 96%
    19:00 +1°C° 0.4 mm 1 mps 613 mmHg 96%
    20:00 0°C° 0.3 mm 1 mps 613 mmHg 97%
    21:00 0°C° 0.3 mm 1 mps 613 mmHg 97%
    22:00 -1°C° 0.3 mm 1 mps 613 mmHg 97%
    23:00 -2°C° 0.1 mm 1 mps 613 mmHg 97%
    Show more